Find Starlink 11274

NORAD ID: 61001 Int'l Des: 2024-158 Owner: SPXS Country: US Constellation: starlink operational
LEOCIRCULAR

Live Position

Loading 3D Globe...

About Starlink 11274

Description loading...

Upcoming Passes

Passes for default location (London). Set your location on the main map for personalized predictions.

Altitude History

Loading altitude history...

Two-Line Element Set

1 61001U 24158M 26106.68551875 -.00001547 00000-0 -79148-5 0 9991
2 61001 53.1599 93.8564 0000835 104.6012 255.5099 15.69709310 93555
Epoch: Apr 16, 2026 • Age: 19 hours

Current Status

Altitude 361.3 km
Velocity 7.70 km/s
Sub-Earth Point 32.31°N, 134.38°W
Launch Date Sep 5, 2024
Age 1.6 years
Type internet

Technical Details

Classification Payload
Mass 960.00 kg
Dry Mass 910.00 kg
Total Mass 960.00 kg
Length 0.30 m
Diameter 4.10 m
Span 29.00 m
Shape Box + pan
Manufacturer SPXS
Bus Type Starlink V2MD
Phase Status In Orbit
Owner/State SPXS/US

Most Searched